When you browse on this site, cookies collect data to enhance your experience and personalize the content and advertising you see.
Visit our Privacy Policy to learn more. By continuing to use the site, you agree to this use of cookies and data.
  • en France
  • Liste des pays
  • À 7 jours
  • Température de l'eau
  • Carte satellitaire
  • Carte météo
  • Widgets météo
  • user-avatar
    Se connecter

    Météo par heure à Salzbourg

    Ce jour, 12 Décembre, Mercredi

    Heure Température Précipitation Vent Pression Humidité
    00:00 -10°C° 0.2 mm 2 m/s 624 mmHg 92%
    01:00 -10°C° 0 mm 2 m/s 623 mmHg 91%
    02:00 -10°C° 0.2 mm 2 m/s 623 mmHg 91%
    03:00 -10°C° 0.2 mm 2 m/s 623 mmHg 90%
    04:00 -10°C° 0.2 mm 2 m/s 623 mmHg 90%
    05:00 -10°C° 0.3 mm 2 m/s 623 mmHg 90%
    06:00 -12°C° 0.3 mm 2 m/s 623 mmHg 90%
    07:00 -12°C° 0.3 mm 2 m/s 623 mmHg 89%
    08:00 -10°C° 0.3 mm 2 m/s 624 mmHg 88%
    09:00 -9°C° 0.3 mm 2 m/s 624 mmHg 87%
    10:00 -9°C° 0.3 mm 2 m/s 624 mmHg 86%
    11:00 -8°C° 0.2 mm 2 m/s 624 mmHg 84%
    12:00 -8°C° 0.2 mm 2 m/s 624 mmHg 83%
    13:00 -6°C° 0.2 mm 1 m/s 624 mmHg 82%
    14:00 -7°C° 0.1 mm 1 m/s 623 mmHg 85%
    15:00 -8°C° 0.1 mm 1 m/s 623 mmHg 88%
    16:00 -9°C° 0.1 mm 1 m/s 623 mmHg 92%
    17:00 -9°C° 0 mm 1 m/s 622 mmHg 92%
    18:00 -10°C° 0 mm 1 m/s 622 mmHg 92%
    19:00 -11°C° 0 mm 1 m/s 622 mmHg 92%
    20:00 -11°C° 0 mm 1 m/s 622 mmHg 91%
    21:00 -12°C° 0 mm 1 m/s 622 mmHg 90%
    22:00 -12°C° 0 mm 1 m/s 622 mmHg 88%
    23:00 -12°C° 0 mm 1 m/s 622 mmHg 88%

    Demain, 13 Décembre, Jeudi

    Heure Température Précipitation Vent Pression Humidité
    00:00 -12°C° 0 mm 1 m/s 622 mmHg 87%
    01:00 -12°C° 0 mm 1 m/s 621 mmHg 86%
    02:00 -12°C° 0 mm 1 m/s 621 mmHg 86%
    03:00 -13°C° 0 mm 1 m/s 621 mmHg 86%
    04:00 -13°C° 0 mm 1 m/s 621 mmHg 86%
    05:00 -13°C° 0 mm 1 m/s 620 mmHg 86%
    06:00 -13°C° 0 mm 1 m/s 620 mmHg 86%
    07:00 -15°C° 0 mm 2 m/s 620 mmHg 86%
    08:00 -14°C° 0 mm 2 m/s 620 mmHg 84%
    09:00 -13°C° 0 mm 2 m/s 621 mmHg 82%
    10:00 -12°C° 0 mm 2 m/s 621 mmHg 81%
    11:00 -10°C° 0 mm 2 m/s 621 mmHg 79%
    12:00 -8°C° 0 mm 2 m/s 621 mmHg 78%
    13:00 -7°C° 0 mm 2 m/s 621 mmHg 76%
    14:00 -8°C° 0 mm 2 m/s 621 mmHg 80%
    15:00 -9°C° 0 mm 2 m/s 620 mmHg 84%
    16:00 -10°C° 0 mm 2 m/s 620 mmHg 88%
    17:00 -10°C° 0 mm 2 m/s 620 mmHg 88%
    18:00 -12°C° 0 mm 2 m/s 620 mmHg 89%
    19:00 -13°C° 0 mm 2 m/s 620 mmHg 89%
    20:00 -13°C° 0 mm 2 m/s 620 mmHg 89%
    21:00 -13°C° 0 mm 2 m/s 620 mmHg 88%
    22:00 -13°C° 0 mm 2 m/s 620 mmHg 88%
    23:00 -11°C° 0 mm 1 m/s 620 mmHg 87%

    Après-demain, 14 Décembre, Vendredi

    Heure Température Précipitation Vent Pression Humidité
    00:00 -11°C° 0 mm 1 m/s 620 mmHg 87%
    01:00 -11°C° 0 mm 1 m/s 620 mmHg 87%
    02:00 -11°C° 0 mm 1 m/s 619 mmHg 87%
    03:00 -11°C° 0 mm 1 m/s 619 mmHg 87%
    04:00 -11°C° 0 mm 1 m/s 619 mmHg 87%
    05:00 -11°C° 0 mm 1 m/s 619 mmHg 87%
    06:00 -11°C° 0 mm 1 m/s 619 mmHg 87%
    07:00 -11°C° 0 mm 1 m/s 619 mmHg 87%
    08:00 -10°C° 0 mm 1 m/s 620 mmHg 85%
    09:00 -9°C° 0 mm 1 m/s 621 mmHg 84%
    10:00 -8°C° 0 mm 1 m/s 621 mmHg 82%
    11:00 -7°C° 0 mm 1 m/s 622 mmHg 81%
    12:00 -6°C° 0 mm 1 m/s 622 mmHg 79%
    13:00 -4°C° 0 mm 1 m/s 622 mmHg 78%
    14:00 -6°C° 0 mm 1 m/s 622 mmHg 83%
    15:00 -7°C° 0 mm 1 m/s 621 mmHg 87%
    16:00 -8°C° 0 mm 1 m/s 621 mmHg 92%
    17:00 -9°C° 0 mm 1 m/s 621 mmHg 92%
    18:00 -10°C° 0 mm 1 m/s 621 mmHg 92%
    19:00 -11°C° 0 mm 1 m/s 621 mmHg 93%
    20:00 -11°C° 0 mm 1 m/s 621 mmHg 92%
    21:00 -11°C° 0 mm 1 m/s 622 mmHg 91%
    22:00 -11°C° 0 mm 1 m/s 622 mmHg 91%
    23:00 -11°C° 0 mm 1 m/s 622 mmHg 90%

    15 Décembre, Samedi

    Heure Température Précipitation Vent Pression Humidité
    00:00 -11°C° 0 mm 1 m/s 622 mmHg 89%
    01:00 -12°C° 0 mm 1 m/s 622 mmHg 88%
    02:00 -12°C° 0 mm 1 m/s 622 mmHg 88%
    03:00 -12°C° 0 mm 1 m/s 622 mmHg 88%
    04:00 -12°C° 0 mm 1 m/s 622 mmHg 88%
    05:00 -12°C° 0 mm 1 m/s 623 mmHg 89%
    06:00 -12°C° 0 mm 1 m/s 623 mmHg 89%
    07:00 -12°C° 0 mm 1 m/s 623 mmHg 90%
    08:00 -11°C° 0 mm 1 m/s 624 mmHg 89%
    09:00 -10°C° 0 mm 1 m/s 624 mmHg 87%
    10:00 -9°C° 0 mm 1 m/s 625 mmHg 85%
    11:00 -8°C° 0 mm 1 m/s 625 mmHg 84%
    12:00 -8°C° 0 mm 1 m/s 625 mmHg 82%
    13:00 -7°C° 0 mm 1 m/s 625 mmHg 80%
    14:00 -8°C° 0 mm 1 m/s 624 mmHg 83%
    15:00 -9°C° 0 mm 1 m/s 624 mmHg 87%
    16:00 -9°C° 0 mm 1 m/s 624 mmHg 90%
    17:00 -10°C° 0 mm 1 m/s 624 mmHg 89%
    18:00 -11°C° 0 mm 1 m/s 624 mmHg 88%
    19:00 -12°C° 0 mm 1 m/s 624 mmHg 87%
    20:00 -12°C° 0 mm 1 m/s 624 mmHg 84%
    21:00 -12°C° 0 mm 1 m/s 624 mmHg 81%
    22:00 -12°C° 0 mm 1 m/s 624 mmHg 77%
    23:00 -12°C° 0 mm 1 m/s 624 mmHg 75%

    16 Décembre, Dimanche

    Heure Température Précipitation Vent Pression Humidité
    00:00 -12°C° 0 mm 1 m/s 624 mmHg 72%
    01:00 -12°C° 0 mm 1 m/s 624 mmHg 69%
    02:00 -12°C° 0 mm 1 m/s 624 mmHg 67%
    03:00 -11°C° 0 mm 1 m/s 624 mmHg 64%
    04:00 -11°C° 0 mm 1 m/s 624 mmHg 62%
    05:00 -13°C° 0 mm 2 m/s 624 mmHg 60%
    06:00 -13°C° 0 mm 2 m/s 624 mmHg 58%
    07:00 -13°C° 0 mm 2 m/s 624 mmHg 56%
    08:00 -9°C° 0 mm 1 m/s 624 mmHg 57%
    09:00 -7°C° 0 mm 1 m/s 625 mmHg 58%
    10:00 -6°C° 0 mm 1 m/s 625 mmHg 59%
    11:00 -3°C° 0 mm 1 m/s 625 mmHg 60%
    12:00 -1°C° 0 mm 1 m/s 625 mmHg 62%
    13:00 0°C° 0 mm 1 m/s 625 mmHg 64%
    14:00 0°C° 0.1 mm 1 m/s 625 mmHg 66%
    15:00 -1°C° 0.1 mm 1 m/s 625 mmHg 67%
    16:00 -1°C° 0.1 mm 1 m/s 625 mmHg 69%
    17:00 -1°C° 0.1 mm 1 m/s 625 mmHg 69%
    18:00 -1°C° 0.1 mm 1 m/s 625 mmHg 70%
    19:00 -2°C° 0.1 mm 1 m/s 625 mmHg 70%
    20:00 -2°C° 0.1 mm 1 m/s 625 mmHg 71%
    21:00 -2°C° 0.1 mm 1 m/s 625 mmHg 73%
    22:00 -1°C° 0.1 mm 1 m/s 625 mmHg 74%
    23:00 -2°C° 0.2 mm 1 m/s 625 mmHg 75%

    17 Décembre, Lundi

    Heure Température Précipitation Vent Pression Humidité
    00:00 -2°C° 0.2 mm 1 m/s 625 mmHg 75%
    01:00 -2°C° 0.2 mm 1 m/s 624 mmHg 76%
    02:00 -2°C° 0.3 mm 1 m/s 624 mmHg 77%
    03:00 -2°C° 0.3 mm 1 m/s 624 mmHg 79%
    04:00 -3°C° 0.3 mm 1 m/s 624 mmHg 80%
    05:00 -3°C° 0.4 mm 1 m/s 624 mmHg 83%
    06:00 -3°C° 0.4 mm 1 m/s 625 mmHg 86%
    07:00 -2°C° 0.4 mm 1 m/s 625 mmHg 88%
    08:00 -2°C° 0.1 mm 1 m/s 625 mmHg 89%
    09:00 -1°C° 0.1 mm 1 m/s 625 mmHg 90%
    10:00 -2°C° 0.1 mm 0 m/s 626 mmHg 91%
    11:00 -1°C° 0.1 mm 0 m/s 626 mmHg 92%
    12:00 -1°C° 0.1 mm 0 m/s 626 mmHg 93%
    13:00 0°C° 0.1 mm 0 m/s 626 mmHg 94%
    14:00 -1°C° 0.5 mm 0 m/s 625 mmHg 94%
    15:00 -1°C° 0.5 mm 0 m/s 625 mmHg 95%
    16:00 -2°C° 0.5 mm 0 m/s 625 mmHg 95%
    17:00 -2°C° 0.9 mm 0 m/s 625 mmHg 95%
    18:00 -2°C° 0.9 mm 0 m/s 626 mmHg 96%
    19:00 -2°C° 0.9 mm 0 m/s 626 mmHg 96%
    20:00 -1°C° 1 mm 1 m/s 626 mmHg 96%
    21:00 -1°C° 1 mm 1 m/s 626 mmHg 96%
    22:00 -1°C° 1 mm 1 m/s 627 mmHg 97%
    23:00 -1°C° 1.1 mm 1 m/s 627 mmHg 97%
    Voir plus